Theta_e
300 299 297 296 295 296 296 296 296 295 295 295 295 295 296 296 296 295 296 296 296 296 296 296 296 296 296 296 296 296 296 296 297 297 297 297 297 298 298 298 298 298 298 298 299 300 301 303 305 304 305 309 312 313 316 318 321 326 327 326 324 325 326 327 326 325 324 322 322 322 322 321 319 317
300 298 296 295 296 296 296 295 294 294 294 294 295 295 295 295 295 295 295 295 296 296 296 296 296 296 296 296 296 296 296 296 297 297 297 297 297 298 298 297 298 298 298 298 299 299 299 300 302 302 303 306 308 310 312 315 318 322 325 326 325 324 325 326 326 325 324 323 322 322 321 320 319 316
299 298 296 296 296 296 295 293 292 293 294 294 294 295 295 295 295 295 295 295 295 296 296 295 295 295 296 295 295 296 296 296 297 296 297 297 297 297 297 297 297 297 297 298 298 297 297 298 300 301 302 304 306 308 309 311 314 318 322 325 326 325 325 326 326 325 324 323 322 322 321 320 318 316
298 297 296 296 296 296 294 293 292 293 294 294 295 295 295 295 295 295 295 295 295 295 295 295 295 295 295 295 295 295 296 296 296 296 296 296 296 296 296 296 296 296 297 297 297 297 297 298 299 299 300 301 303 305 306 307 311 316 319 323 325 326 324 324 325 325 325 323 322 322 322 320 318 316
298 297 297 297 296 295 294 293 293 293 294 295 295 295 295 295 295 295 295 295 295 295 295 295 295 295 295 295 295 295 295 295 295 295 295 295 295 296 296 296 296 296 296 296 296 296 297 297 297 298 298 299 300 302 303 305 310 315 318 320 324 326 325 324 325 326 325 323 322 321 321 319 317 316
297 297 297 297 296 295 295 294 293 293 293 294 295 295 295 295 295 295 295 295 295 295 295 295 295 295 295 295 295 295 295 295 295 296 296 296 296 296 296 296 296 295 295 296 296 296 296 296 296 296 297 298 299 300 302 307 311 314 316 318 321 324 325 324 324 326 325 324 322 321 320 319 317 317
297 297 297 296 296 295 295 294 293 293 293 293 294 294 294 295 295 295 295 295 295 295 295 295 295 295 295 295 295 295 295 295 295 295 296 295 296 295 295 295 295 295 295 295 296 295 296 296 295 296 296 297 298 300 304 308 310 311 314 317 318 321 324 325 324 325 326 324 323 321 319 319 318 317
297 297 297 296 296 295 295 294 293 293 293 293 293 293 294 294 295 295 295 295 295 295 295 295 295 294 294 294 295 295 295 295 295 295 295 295 295 295 295 295 295 295 295 295 295 295 295 295 295 295 296 296 298 301 304 306 307 308 310 314 317 319 321 324 325 325 325 325 324 322 319 318 317 318
297 297 297 296 296 295 295 294 293 293 293 293 293 293 293 294 294 294 294 294 295 295 295 295 294 294 294 294 294 294 295 295 295 295 295 295 295 295 295 295 295 295 295 295 295 295 295 295 295 295 295 296 298 301 303 304 305 305 306 309 315 317 319 322 324 324 325 325 324 322 320 318 317 317
297 297 297 296 296 295 294 293 293 293 293 293 293 293 293 293 293 293 294 294 294 294 294 294 294 294 294 294 294 294 295 295 295 295 295 295 295 295 295 295 295 295 295 295 295 295 295 295 295 295 295 296 299 300 301 301 302 303 304 306 312 317 318 319 322 324 324 325 324 323 321 319 317 317
297 296 296 296 296 294 293 293 293 293 293 293 293 293 293 293 293 293 293 294 294 294 294 294 294 294 294 294 294 294 294 295 295 295 295 295 295 295 295 295 295 295 295 295 295 295 295 295 295 295 295 296 297 297 297 298 299 300 302 304 308 315 318 317 319 322 324 324 324 323 322 319 317 317
297 296 297 296 295 294 293 293 293 293 293 293 293 293 293 293 293 293 293 293 294 294 294 294 294 294 294 294 294 294 294 295 295 295 295 295 295 295 295 295 295 295 295 295 295 295 295 295 295 295 295 295 295 295 296 297 298 299 301 303 304 310 316 317 317 320 323 324 324 323 322 320 318 317
297 297 297 296 294 294 293 293 293 293 293 293 293 293 293 293 293 293 293 293 293 293 293 294 294 294 294 294 294 294 294 295 295 295 295 295 295 295 295 295 295 295 295 295 295 295 295 295 295 295 295 295 295 295 295 296 297 298 300 302 302 306 312 316 316 318 321 323 324 324 322 320 319 317
297 297 296 295 294 294 294 293 293 294 294 293 294 294 294 294 293 293 293 293 293 293 293 293 293 293 293 293 294 294 294 295 295 295 295 295 295 295 295 295 295 295 295 295 295 295 295 295 295 295 295 295 295 295 295 296 298 298 300 301 301 303 308 313 315 316 319 322 324 324 322 320 319 317
297 296 296 295 295 294 294 294 294 294 294 294 294 294 294 294 293 293 293 293 293 293 293 293 293 293 293 293 294 294 294 294 294 294 294 294 294 295 295 295 295 295 295 295 295 295 295 295 295 295 294 295 295 295 295 296 297 299 299 301 302 302 305 310 313 315 316 320 323 324 322 321 320 318
296 296 295 295 295 295 294 294 294 294 294 294 294 294 294 293 293 293 293 293 293 293 293 293 293 293 293 293 294 294 294 294 294 294 294 294 294 294 295 295 295 295 294 294 295 295 294 294 295 295 294 295 295 295 296 297 298 299 300 301 302 303 304 307 311 314 315 317 320 323 323 321 321 319
296 296 295 296 296 295 294 294 294 294 294 294 294 294 294 294 293 293 293 293 293 293 293 293 293 293 293 293 293 294 294 294 294 294 294 294 294 294 294 294 294 294 294 294 294 294 294 294 294 295 295 295 295 295 296 297 298 299 300 301 303 304 306 307 309 313 314 315 318 320 322 321 321 320
296 295 296 296 295 294 294 294 294 294 294 294 294 294 294 293 293 293 293 293 293 293 293 293 293 293 293 293 293 293 293 293 293 293 293 294 294 294 294 294 294 294 294 294 294 294 294 294 295 295 295 295 295 296 297 298 299 300 301 302 303 304 306 308 309 312 314 315 316 318 320 320 320 321
296 296 296 296 295 294 294 294 294 294 294 294 293 293 293 293 293 293 293 293 293 293 292 292 292 292 292 292 293 293 293 293 293 293 293 293 294 294 294 294 293 294 294 294 294 294 294 294 295 295 295 295 296 297 297 298 299 300 300 301 303 305 307 309 310 312 314 315 315 316 317 318 319 320
296 296 296 296 295 294 294 294 294 294 294 294 293 293 293 293 293 293 293 293 293 292 292 292 292 292 292 292 292 293 293 293 293 293 293 293 293 293 293 293 293 293 293 294 294 294 294 294 295 295 295 296 296 297 297 298 299 300 300 302 303 305 308 310 311 313 315 315 314 315 316 317 318 320
295 295 295 295 294 294 294 294 294 294 294 294 293 294 294 293 293 293 293 292 292 291 292 292 292 292 292 292 292 293 293 293 293 293 293 293 293 293 293 293 293 293 293 293 293 294 294 294 294 295 295 296 296 297 298 299 300 302 303 305 307 308 309 311 313 314 316 316 315 315 315 316 317 318
294 294 294 294 294 294 294 294 294 294 294 294 294 294 293 293 293 293 292 292 291 291 292 292 292 292 292 292 292 293 293 293 293 293 293 293 292 292 292 292 292 292 292 293 293 294 294 294 295 295 296 296 297 298 299 300 301 304 306 307 310 312 312 312 315 316 317 317 316 315 315 315 314 314
294 294 294 294 294 294 294 294 294 294 294 294 294 294 293 293 293 292 292 291 291 291 291 291 291 291 292 292 292 293 293 293 293 293 293 293 292 292 292 292 292 292 292 293 293 293 294 294 294 295 296 297 297 298 299 301 303 305 305 305 308 313 315 315 316 317 318 318 317 315 315 315 313 312
294 294 294 294 294 294 294 294 294 294 294 293 293 293 293 293 293 292 291 291 291 291 291 291 291 291 291 292 292 293 293 293 293 293 293 292 292 292 292 291 291 291 291 291 292 292 293 293 294 295 296 297 297 298 299 301 302 303 304 305 308 313 317 317 317 318 318 318 317 315 314 314 313 312
294 294 294 294 294 294 295 294 294 294 293 293 293 292 292 292 292 291 291 291 291 291 291 291 291 291 291 291 292 292 292 292 293 293 293 292 292 292 291 291 291 291 291 291 291 291 292 293 294 295 296 297 298 298 299 300 301 303 305 308 310 313 316 318 318 318 317 316 316 315 313 312 312 312
294 294 294 294 294 295 295 294 294 294 293 293 292 292 292 292 291 290 290 291 291 291 291 290 291 291 291 291 291 292 292 292 293 293 293 293 292 292 291 291 290 290 290 291 291 292 292 293 294 295 296 297 298 299 300 301 302 304 307 310 313 315 316 318 318 318 317 315 313 313 312 311 311 312
294 294 295 295 295 295 295 294 293 293 293 293 292 292 291 291 291 290 290 290 290 290 290 290 290 291 291 291 291 292 292 292 293 293 293 292 292 292 291 291 291 290 291 291 292 292 293 294 295 296 297 298 299 300 301 302 303 305 307 310 313 314 315 316 317 318 317 315 312 311 311 310 310 311
294 295 295 295 295 295 294 294 293 293 293 293 292 292 291 291 291 290 290 290 290 290 290 290 290 290 290 290 291 291 292 292 293 293 293 292 292 292 291 291 291 291 291 291 291 292 293 294 295 296 297 299 300 301 302 303 304 306 308 311 312 312 313 315 315 316 315 313 311 309 308 308 308 310
295 295 295 295 295 295 294 294 293 293 293 293 292 292 291 291 290 290 290 290 290 290 290 290 290 290 290 290 291 291 292 292 293 293 293 292 292 292 291 291 291 291 291 291 291 293 293 293 294 295 296 298 300 302 303 304 305 306 308 310 311 311 312 313 314 313 312 310 308 308 308 308 308 309
295 295 295 295 295 295 294 293 293 293 293 293 292 291 291 291 290 290 290 290 290 290 290 290 290 290 290 291 291 291 292 292 293 293 293 292 292 292 291 291 291 291 291 291 292 293 293 293 293 294 296 297 300 302 303 304 306 307 308 310 311 311 311 311 312 311 310 309 308 308 308 308 308 309
295 295 295 295 295 295 294 293 293 293 293 292 291 291 291 291 290 290 290 290 290 290 290 290 290 290 291 291 291 291 292 292 293 293 293 292 292 292 291 291 291 291 291 291 292 292 293 293 293 294 296 298 299 300 301 302 302 304 307 309 310 311 311 311 310 310 310 309 308 307 307 307 308 309
295 295 295 295 294 294 294 293 293 293 293 293 292 291 291 290 290 289 290 290 290 290 290 290 290 290 290 290 290 291 291 292 293 293 293 292 292 292 291 291 291 291 291 291 291 292 293 293 293 292 293 294 294 295 297 298 299 301 305 308 310 311 311 311 310 309 309 308 307 306 307 307 307 308
296 296 295 295 294 294 294 293 293 293 293 293 292 292 291 290 289 289 289 290 290 290 290 290 290 290 290 290 290 290 291 291 292 293 293 292 292 292 292 291 291 291 291 291 291 291 292 293 294 293 292 291 291 292 293 294 296 299 303 305 308 309 309 309 309 309 308 308 307 306 306 307 307 308
296 296 296 295 294 293 293 293 293 293 293 293 292 292 291 289 288 288 289 290 290 290 290 290 290 290 290 290 290 290 290 291 292 292 293 292 292 292 292 292 291 291 291 290 290 290 291 291 293 293 293 292 292 292 291 290 292 296 300 301 302 304 306 307 308 308 308 308 307 306 306 306 307 307
297 296 296 295 294 293 293 293 293 293 293 293 292 292 292 290 288 287 289 290 290 290 290 290 290 290 290 289 290 290 290 291 291 292 292 292 292 292 292 291 291 291 291 291 290 290 290 291 291 292 293 293 292 292 291 290 291 293 296 297 298 299 302 305 306 306 307 307 306 306 306 305 306 307
297 296 296 295 294 293 293 293 293 293 293 293 293 292 292 290 288 287 289 290 290 290 290 290 290 290 290 289 290 290 290 290 291 292 292 292 292 292 292 292 291 291 291 291 290 290 290 290 290 291 292 292 292 291 291 290 291 292 293 294 296 297 299 302 304 304 304 305 305 305 304 303 304 305
296 296 296 296 294 294 293 293 293 293 293 293 293 292 291 291 289 288 288 289 290 290 290 290 290 290 290 290 289 290 290 290 291 291 292 292 292 292 292 292 292 291 291 291 291 290 290 290 290 290 291 291 290 290 290 290 291 292 292 293 294 295 296 299 301 300 300 302 302 302 302 301 301 302
296 297 296 296 295 294 294 294 293 293 293 293 293 292 292 291 290 289 288 289 290 290 290 290 290 290 290 290 289 289 290 290 291 291 291 292 292 291 291 291 291 291 291 291 291 290 290 290 290 290 290 290 290 290 290 289 289 290 292 293 293 293 295 296 296 295 296 298 298 298 299 299 298 299
297 297 297 296 295 294 294 294 293 293 293 293 293 292 292 291 291 290 289 288 289 290 289 289 290 290 290 290 290 289 290 290 290 290 291 292 292 291 291 291 291 291 291 291 291 290 290 290 290 290 290 290 289 289 290 289 289 289 290 292 292 293 293 294 293 293 294 295 295 296 296 296 296 298
297 297 297 296 295 294 295 294 294 294 293 293 293 293 292 291 291 290 289 288 289 289 289 289 289 290 290 290 290 290 290 290 289 290 291 292 292 292 291 291 291 291 291 291 291 290 290 290 290 290 290 290 290 290 290 290 289 289 289 290 291 292 292 292 293 293 293 293 294 294 294 294 294 295
297 297 297 296 295 295 295 295 294 294 293 293 293 293 292 292 291 291 290 289 288 289 289 289 289 289 290 290 290 290 290 290 290 290 290 291 292 293 292 291 291 291 291 291 291 290 290 290 290 290 290 290 290 290 290 290 289 289 289 289 289 291 292 292 292 292 292 293 294 293 293 293 292 292
297 297 297 296 295 295 295 295 295 295 294 293 293 292 292 292 291 291 291 290 289 289 289 289 289 289 290 290 290 290 290 290 290 290 290 291 292 293 292 292 291 291 291 291 291 290 290 290 290 290 290 290 290 289 289 289 289 289 289 288 288 290 291 292 293 293 292 292 293 292 292 292 292 292
297 297 297 296 296 296 296 296 295 295 295 294 293 292 292 292 292 291 291 291 289 289 288 288 288 289 289 290 290 290 290 290 290 290 290 291 292 293 293 293 292 291 291 291 291 291 291 290 290 290 290 289 289 289 289 289 289 288 288 288 288 289 289 291 292 293 293 293 293 293 293 292 292 291
297 297 297 296 296 296 296 296 296 295 295 294 294 293 292 292 292 291 291 291 290 289 289 288 288 288 289 289 290 290 291 290 291 291 291 291 292 293 294 293 293 292 291 291 291 291 291 291 290 290 290 289 289 289 289 289 289 288 288 288 288 288 288 289 290 291 291 291 292 293 293 292 291 291
297 297 297 297 296 296 296 296 296 296 295 295 294 293 292 292 292 292 291 291 291 290 289 289 288 288 289 289 289 290 290 290 291 291 291 291 291 293 294 294 293 292 292 291 291 291 291 291 290 290 290 290 289 289 289 289 289 289 289 289 288 288 288 288 288 288 288 288 290 292 292 292 292 291
Wind_Speed
20 21 21 21 22 22 22 23 22 21 20 19 18 17 16 11 7 5 7 8 13 23 29 27 30 35 36 35 36 36 37 37 35 35 37 36 36 36 36 36 36 35 35 34 32 33 33 30 29 28 27 24 23 22 20 20 25 38 50 50 49 50 48 46 45 43 41 42 42 41 39 36 35 34
19 20 20 21 22 21 22 23 24 22 20 19 18 16 16 14 10 7 7 7 12 21 27 29 32 37 37 36 36 35 35 35 34 35 37 37 36 36 36 36 35 35 35 34 34 35 34 31 29 29 28 26 25 25 23 21 20 27 43 53 53 51 51 48 46 45 43 42 42 42 41 39 38 36
17 18 19 20 21 20 22 25 26 25 22 19 18 17 16 16 13 11 8 7 12 19 23 27 33 34 35 36 36 36 34 32 33 35 36 36 37 37 36 36 35 35 35 33 34 36 34 31 30 30 29 29 28 26 25 24 21 20 31 49 56 53 52 51 48 47 47 44 42 43 42 41 40 38
16 17 17 18 18 19 22 26 27 27 23 19 18 17 17 16 15 14 11 8 12 18 21 25 30 31 33 34 35 35 35 33 33 33 34 37 38 38 38 36 35 35 34 33 35 36 35 33 32 31 31 30 30 28 26 27 24 20 23 37 52 55 53 54 52 50 49 47 44 44 44 43 42 40
16 15 15 15 16 19 22 25 26 25 23 19 17 17 17 18 17 16 15 12 12 18 22 24 26 28 30 31 32 33 34 35 35 34 34 36 37 38 38 37 36 36 35 36 36 36 35 34 34 34 33 32 30 29 26 26 25 22 20 26 43 54 55 54 54 53 51 50 47 46 46 45 43 43
14 14 13 13 15 18 22 23 23 23 23 20 17 17 17 19 19 18 18 16 15 18 23 25 26 27 27 28 30 32 33 35 37 37 37 36 35 36 37 38 39 38 37 37 37 37 36 35 37 37 35 32 29 27 25 23 24 23 20 21 33 49 56 54 54 54 52 51 50 48 48 47 46 44
11 11 11 12 14 17 21 22 21 20 21 21 19 18 17 18 20 20 19 19 18 19 22 25 26 27 28 28 29 31 32 33 35 38 39 38 37 37 37 38 39 39 39 39 38 38 37 37 38 38 36 33 28 24 23 22 23 23 20 18 26 40 52 56 55 55 55 53 52 51 50 50 49 46
9 9 10 11 13 17 20 21 21 19 19 20 20 19 19 18 19 21 21 21 20 21 22 25 27 28 28 28 29 31 31 31 33 36 38 39 39 38 37 37 39 40 40 39 38 38 37 37 38 37 36 33 27 23 23 24 24 24 22 18 20 31 45 56 58 57 57 56 55 54 53 51 50 48
8 7 8 10 12 16 19 20 20 18 18 19 20 20 21 20 21 22 23 24 23 22 23 25 28 28 28 28 30 31 30 31 33 33 36 38 39 40 40 39 40 40 40 39 39 39 38 37 36 34 34 32 26 24 25 26 27 26 24 20 18 24 37 51 59 60 59 58 57 57 56 53 52 51
7 7 8 9 11 15 18 18 18 17 18 19 21 22 23 23 24 25 26 26 25 24 24 26 27 28 28 29 29 30 31 31 31 32 34 36 38 40 41 41 41 40 39 39 39 39 38 37 34 32 31 29 26 27 29 30 30 28 25 23 19 22 31 44 56 61 60 60 59 59 58 56 55 54
8 8 6 7 11 15 16 16 16 16 17 19 22 23 25 26 26 26 27 27 26 25 25 25 26 27 28 28 30 31 32 30 29 29 31 31 35 40 40 41 42 41 40 40 39 38 36 34 32 30 30 30 30 34 35 33 31 29 26 23 21 21 27 36 49 58 62 61 60 60 60 59 57 56
6 7 5 7 12 15 15 15 15 16 18 20 23 25 27 28 28 28 28 28 27 26 25 25 26 27 27 28 30 31 30 27 27 29 30 29 31 37 40 39 38 39 41 41 39 37 33 32 33 32 33 34 35 36 36 33 30 28 26 24 21 20 22 30 41 54 61 62 61 61 62 62 59 58
3 4 4 8 13 14 15 15 16 17 19 21 25 28 29 30 29 28 28 28 27 25 24 25 26 25 25 27 29 29 27 27 29 32 32 30 30 34 39 39 36 34 36 38 37 37 35 35 37 36 35 36 36 36 36 34 31 27 25 24 22 19 19 23 35 49 59 63 64 63 63 62 60 58
2 3 3 9 13 15 16 17 17 18 21 23 26 29 30 31 30 29 28 28 27 25 23 24 26 24 24 27 28 28 29 31 32 33 32 31 32 32 32 34 34 29 27 31 36 40 38 34 36 37 36 37 37 37 38 35 31 27 24 23 23 21 18 19 28 43 56 62 65 64 63 62 61 59
3 3 3 11 15 17 17 17 18 20 24 26 28 29 29 30 29 29 29 29 29 27 25 26 27 25 25 29 30 30 32 33 33 33 33 32 32 30 23 22 27 26 26 30 36 41 39 31 32 36 36 36 37 37 37 35 30 27 24 22 23 22 20 18 23 36 50 59 64 65 64 63 63 61
4 2 5 13 17 19 18 17 20 24 27 29 29 29 29 30 28 27 27 28 30 29 27 27 28 28 28 30 31 32 34 36 35 35 34 31 30 30 24 22 27 31 32 31 32 37 39 30 29 35 36 36 37 37 36 33 29 26 23 21 22 21 21 20 20 28 43 54 61 65 65 65 65 63
5 1 7 13 18 18 17 19 23 27 30 31 30 30 30 30 28 27 28 28 29 30 29 29 29 32 32 31 32 36 37 38 38 36 34 33 31 30 28 29 34 37 36 33 29 33 38 31 27 34 36 34 35 35 35 33 30 27 25 22 22 21 21 21 21 24 34 46 56 63 65 67 67 65
3 2 8 14 17 17 18 21 25 29 31 32 31 30 30 29 29 29 30 30 30 30 30 31 32 35 36 34 36 39 40 39 39 36 36 37 36 35 35 37 39 38 35 33 26 25 33 31 26 31 35 33 34 34 34 33 31 29 27 25 23 23 22 22 23 23 28 38 50 58 63 67 69 67
1 4 9 14 17 18 20 23 26 29 30 29 29 29 28 28 30 31 31 31 32 32 32 33 34 36 37 36 37 40 42 41 40 38 39 41 41 40 37 35 36 33 30 29 23 20 29 30 25 29 34 32 32 32 32 33 33 31 30 27 24 23 22 23 24 24 26 33 44 54 61 65 68 68
3 4 8 13 16 19 21 24 25 26 26 26 28 30 29 29 31 32 31 31 32 33 34 34 36 37 37 36 37 40 42 42 42 42 41 40 38 35 29 27 30 28 24 23 21 20 28 29 24 27 32 30 30 33 33 33 33 31 30 27 23 22 22 23 25 26 27 30 39 51 59 63 67 70
4 4 7 12 16 20 23 24 24 23 23 25 28 30 31 31 32 32 33 33 34 34 34 35 36 37 37 36 37 40 41 42 43 42 38 37 35 29 20 18 23 25 23 22 21 21 26 28 24 26 30 29 29 32 33 32 29 26 23 21 20 21 22 24 25 26 29 31 36 47 57 61 65 69
4 6 9 12 17 21 23 22 22 22 23 25 28 30 31 32 32 32 34 36 36 35 35 36 37 38 37 36 37 40 41 42 42 39 37 38 36 30 23 19 23 25 22 18 17 19 23 25 22 23 25 24 26 29 31 29 25 20 18 17 17 18 21 23 25 26 29 31 35 43 54 60 61 62
6 9 11 14 18 22 21 19 21 23 24 26 28 29 31 31 31 32 34 35 36 36 36 38 39 39 38 37 37 40 43 42 41 38 37 38 36 33 30 28 23 17 13 13 13 16 21 22 22 20 15 13 18 24 23 21 20 19 19 19 16 14 16 20 23 25 27 30 34 40 50 59 58 55
10 12 13 15 18 21 19 17 21 24 24 26 27 27 29 30 29 32 33 33 34 35 36 38 38 39 39 38 39 42 43 42 41 39 38 38 36 33 34 33 25 16 18 22 20 20 23 22 21 20 14 8 11 18 19 19 22 23 22 20 16 12 13 16 19 22 25 28 33 38 47 56 59 55
12 14 15 16 18 20 18 16 20 23 24 24 25 25 26 26 27 31 32 33 34 34 35 37 38 39 38 39 40 42 43 42 41 41 40 38 36 33 33 34 30 24 27 29 24 22 24 22 19 19 17 14 15 20 23 25 27 24 19 17 15 11 11 14 18 21 23 26 31 37 44 53 58 58
13 15 16 16 18 18 17 16 19 22 23 23 24 25 25 25 28 31 31 32 33 34 35 36 37 38 38 39 40 41 42 43 43 42 41 39 37 35 34 33 30 27 28 29 24 22 23 23 21 18 17 15 15 18 19 20 23 21 16 14 13 10 10 13 17 19 21 25 29 35 42 48 55 59
14 15 15 16 17 16 15 16 19 22 22 22 24 26 27 26 29 31 31 32 32 33 34 35 36 37 38 38 39 40 43 45 44 43 42 39 38 38 37 34 29 26 25 24 21 19 19 21 21 20 21 18 13 12 13 14 18 19 17 15 11 10 12 14 16 17 19 23 27 32 39 45 52 58
14 15 15 16 17 15 13 16 20 22 21 22 24 27 28 28 30 31 32 32 32 32 34 34 34 37 39 39 39 40 43 44 42 42 42 39 37 38 38 33 28 24 22 21 20 18 15 17 19 20 22 21 15 10 9 11 14 16 15 12 8 11 14 13 15 17 19 22 26 31 36 42 48 53
13 14 14 14 15 13 12 16 21 22 22 23 26 28 29 30 31 32 32 31 31 31 32 33 34 37 39 40 40 41 43 42 40 42 44 42 41 42 40 35 30 27 25 25 25 21 16 16 18 19 20 20 20 17 13 12 15 16 14 10 6 8 12 12 13 17 20 23 27 32 37 41 46 49
12 12 12 14 14 12 12 16 21 22 22 24 27 29 30 30 31 31 32 31 31 31 32 34 35 37 40 42 42 42 43 41 40 42 43 42 42 43 41 36 33 34 35 34 32 25 20 20 16 9 15 14 13 15 13 12 14 14 13 12 8 5 7 11 13 16 21 24 27 32 37 40 46 49
11 11 12 13 13 11 12 15 19 21 23 26 29 30 30 30 30 30 30 30 31 32 32 34 36 39 41 42 42 42 42 41 40 42 42 40 40 42 39 33 32 37 41 40 37 31 24 25 28 20 10 6 5 4 5 7 10 11 7 3 5 2 3 8 13 15 19 23 25 29 33 35 41 46
11 11 12 12 11 11 12 14 18 21 23 25 29 30 30 30 30 30 29 30 31 33 33 34 36 39 41 42 41 41 41 41 41 42 41 40 39 40 38 32 31 35 39 40 42 38 29 24 27 34 35 32 26 21 20 22 22 19 13 7 5 5 3 6 12 14 17 20 22 24 27 31 36 42
11 11 12 12 11 12 13 15 18 20 22 24 28 30 31 31 31 30 30 31 32 33 34 35 36 37 39 40 41 41 41 41 42 41 41 40 38 38 37 33 32 33 33 35 40 42 37 27 19 23 34 41 44 41 34 30 30 26 19 14 12 9 4 4 9 12 15 18 20 21 23 28 33 38
12 11 12 12 10 11 13 14 17 18 20 23 27 29 31 31 31 30 29 30 31 32 34 34 35 37 38 39 40 39 39 41 42 41 40 39 37 36 34 32 33 35 35 36 39 41 40 35 24 17 19 29 43 53 50 40 33 30 24 20 18 14 8 2 5 9 12 16 18 18 18 21 28 33
12 12 13 11 9 10 12 14 15 16 18 21 24 27 29 31 32 30 28 28 30 32 33 34 35 36 37 38 39 39 38 39 40 40 40 39 37 36 34 31 31 34 36 38 40 39 37 37 33 25 20 21 29 40 50 51 42 33 27 25 22 19 15 10 6 6 8 11 15 16 15 14 19 27
11 12 14 13 8 8 11 13 14 15 17 19 21 24 26 29 31 30 27 27 28 30 32 34 35 36 36 37 38 39 39 38 37 38 39 39 38 37 35 33 33 34 35 35 38 38 36 35 33 25 17 15 15 16 28 44 47 36 27 25 24 21 18 15 12 10 9 9 11 13 13 12 14 21
12 13 14 13 8 6 10 12 13 15 16 17 19 20 22 25 29 30 27 25 26 28 30 32 34 36 37 37 38 39 39 37 36 36 37 37 36 35 34 34 34 34 34 34 37 38 35 33 34 27 15 11 11 7 13 33 47 42 31 26 25 23 19 18 19 18 16 15 14 14 15 16 16 17
13 14 15 13 7 6 9 11 12 14 16 16 17 18 19 22 26 29 28 26 25 27 29 30 32 34 36 37 37 37 38 38 37 36 35 36 35 33 32 32 33 33 34 34 36 38 36 33 33 30 20 11 8 6 9 22 37 43 38 30 25 24 23 22 22 23 23 23 23 21 20 21 20 19
14 14 15 12 7 6 9 11 12 14 15 15 15 16 17 20 23 27 28 27 25 26 27 29 30 32 34 36 36 36 36 36 36 35 35 35 34 33 31 31 31 31 32 33 34 36 37 35 33 31 26 18 11 9 11 16 26 39 45 39 30 27 25 22 21 23 25 27 31 31 29 30 28 27
14 14 14 11 8 7 9 11 12 14 14 14 15 15 15 17 20 24 27 26 25 25 26 27 28 30 31 34 35 35 35 36 35 34 34 34 34 34 33 31 30 30 30 31 32 34 36 36 33 30 27 22 17 17 21 23 28 37 45 45 39 33 28 24 23 22 20 22 30 33 30 29 29 29
15 15 13 10 8 8 10 11 13 14 14 14 15 15 15 16 17 21 24 25 24 24 25 26 27 28 29 31 33 34 34 35 35 35 35 34 33 34 34 32 31 30 28 27 30 32 34 35 35 32 30 29 28 27 23 19 20 25 33 41 44 42 35 29 27 25 20 20 28 31 26 26 29 28
16 16 13 10 9 9 10 12 13 14 15 14 14 14 14 14 16 18 21 24 24 24 24 24 25 26 27 29 31 32 33 34 34 35 35 34 32 32 33 32 29 28 26 25 27 30 33 36 38 37 35 34 33 27 17 12 14 20 26 33 40 44 43 38 33 29 25 22 24 23 20 21 22 19
16 15 13 11 10 10 11 12 13 14 15 14 14 14 13 14 15 16 18 22 24 24 23 23 23 24 25 26 28 30 32 33 33 34 34 34 31 30 30 30 30 28 27 25 27 30 34 36 37 37 35 34 31 26 20 18 21 24 26 29 34 40 43 44 41 37 33 28 24 19 17 19 18 15
15 14 13 11 11 12 13 13 13 14 14 14 13 13 13 13 13 14 15 18 21 22 23 23 22 22 23 24 25 27 29 31 31 32 33 33 31 28 27 28 30 31 30 27 27 29 31 33 34 35 34 32 30 28 25 23 24 24 27 31 34 36 38 43 46 46 44 40 35 30 30 32 32 31
14 13 13 13 13 14 14 14 14 15 15 14 13 13 13 13 12 12 13 15 18 20 22 23 21 20 20 22 24 25 27 28 29 30 31 32 30 27 25 26 27 29 29 29 27 26 27 29 31 32 32 30 29 29 28 26 26 27 28 31 32 33 34 39 43 46 47 47 43 40 40 40 40 40
Wind_Direction
63 57 56 58 57 50 43 38 30 25 22 22 22 21 19 10 352 339 338 330 328 335 339 336 334 339 342 341 341 341 340 340 339 337 336 334 334 334 333 332 333 334 334 333 333 331 326 320 320 325 331 330 327 326 318 303 274 243 225 217 216 219 219 216 211 207 206 203 204 205 201 199 200 202
58 55 58 56 51 46 41 33 25 23 21 21 23 24 24 20 10 349 331 323 325 330 333 333 332 335 338 338 336 336 336 337 336 334 333 333 332 332 331 331 331 331 331 331 329 326 323 320 318 321 326 323 318 320 319 313 297 263 236 220 215 216 217 217 214 208 205 203 203 204 202 199 201 204
52 52 56 52 47 43 38 31 25 23 25 27 29 29 28 24 14 356 335 319 327 330 328 329 332 334 335 335 334 333 334 334 333 333 331 331 330 329 329 329 328 328 328 327 325 323 323 323 321 320 321 318 312 311 314 313 309 290 253 227 215 214 215 216 216 210 205 203 202 202 202 200 201 203
47 49 56 52 45 39 33 28 25 24 28 33 35 32 25 20 11 353 337 318 321 329 329 328 331 334 334 334 334 333 332 332 332 332 330 328 328 327 327 327 326 326 325 324 322 323 324 323 321 319 315 311 308 305 307 310 308 302 272 236 219 214 214 215 215 212 208 204 202 202 202 201 202 203
47 52 60 53 41 34 29 25 24 25 28 31 32 27 17 10 6 352 335 319 313 324 330 330 330 334 335 335 336 334 332 331 331 329 328 326 326 325 324 323 322 322 321 321 321 321 321 320 317 316 312 307 304 302 303 305 307 304 286 250 227 219 216 215 214 212 210 205 202 203 203 203 203 202
50 58 61 51 39 31 26 24 23 24 26 25 22 17 10 2 359 353 336 320 310 315 324 328 329 332 333 332 334 334 330 329 329 327 326 325 324 322 321 319 318 318 318 318 319 318 317 316 315 315 314 310 304 302 303 303 305 307 294 264 239 226 219 216 215 213 210 207 204 202 203 204 204 203
58 62 57 46 34 25 23 20 18 21 23 21 15 9 4 355 350 349 338 322 309 307 315 323 324 326 328 327 328 329 327 326 326 325 324 324 323 320 319 317 315 315 316 316 315 315 313 312 313 314 315 313 306 302 305 302 301 306 302 278 252 235 223 217 215 214 211 209 206 203 203 204 204 203
67 63 49 38 26 20 20 17 13 16 18 15 10 5 360 353 344 341 337 326 314 304 306 315 319 320 322 322 324 325 323 324 324 323 322 323 322 320 317 315 313 313 314 314 313 312 311 311 311 312 313 314 309 303 302 299 295 299 304 292 264 244 231 221 216 213 212 209 207 204 203 203 204 203
69 56 37 27 21 18 17 14 9 10 12 9 5 359 355 350 343 338 335 329 319 308 302 307 314 317 317 318 321 323 322 321 321 321 321 321 320 318 316 314 313 314 314 313 312 311 310 310 310 310 311 312 310 303 297 293 292 293 298 298 276 249 238 227 218 213 212 210 206 204 202 202 203 202
57 43 30 19 19 19 15 12 8 6 7 3 358 354 350 346 341 337 334 330 322 312 305 305 310 314 316 316 318 322 322 319 318 318 319 319 319 317 316 315 314 314 312 311 311 310 309 309 308 307 310 311 307 299 292 288 290 289 290 295 284 254 240 233 222 214 212 211 207 203 202 202 203 202
45 34 30 20 20 19 16 14 10 5 2 358 354 350 346 343 339 334 332 328 323 316 310 308 310 312 314 315 315 319 321 317 315 317 317 316 317 316 315 313 312 312 312 310 309 308 307 306 306 305 306 305 299 295 293 290 289 287 285 289 287 264 242 235 227 216 211 211 208 203 202 203 202 202
37 32 40 30 23 20 19 16 11 5 359 353 349 348 345 341 337 333 330 326 322 318 313 311 312 312 314 315 316 318 321 319 318 319 317 310 310 312 311 309 309 310 309 309 308 306 306 304 303 302 301 300 297 297 298 295 289 286 282 281 286 275 249 237 231 221 212 210 208 205 204 203 202 202
43 51 55 34 24 22 18 13 8 4 359 352 347 346 343 340 336 332 329 325 321 318 315 314 315 315 314 315 317 318 321 321 318 318 315 307 304 306 305 303 305 307 306 306 304 303 303 302 301 300 298 298 298 297 297 296 291 285 280 277 283 282 260 242 234 225 215 209 209 207 204 204 203 202
113 118 60 32 25 20 14 9 6 3 358 353 348 344 343 340 337 332 326 324 321 318 315 316 317 315 312 314 316 317 319 319 318 317 315 310 307 306 303 301 304 307 306 304 301 299 300 301 299 298 296 295 296 295 295 296 292 285 278 275 278 280 268 249 239 231 219 210 209 208 205 203 203 202
157 154 48 31 23 14 8 6 4 360 354 349 345 343 343 343 341 336 328 322 321 319 316 316 317 313 310 313 316 317 318 319 317 315 313 309 307 306 303 302 304 307 309 304 299 296 297 297 295 293 293 293 293 293 293 294 291 285 278 274 274 275 267 251 241 235 224 213 209 209 206 204 204 204
173 137 38 25 14 7 5 3 358 353 348 345 342 342 344 346 348 345 336 329 324 321 317 315 316 313 310 313 316 318 318 318 316 314 311 308 304 300 297 296 297 302 306 302 295 293 294 295 293 290 289 290 290 292 292 293 291 285 279 274 272 271 265 253 240 234 228 218 210 208 207 205 204 204
168 91 20 10 3 2 2 357 351 346 343 341 341 342 346 350 353 351 346 342 336 329 322 315 313 316 314 312 314 317 318 318 315 314 311 308 304 298 295 294 295 299 302 296 289 288 290 292 290 286 287 288 288 289 291 292 290 286 281 277 272 267 262 254 243 233 229 223 215 209 207 205 204 204
165 356 356 355 355 355 353 347 343 341 340 343 345 347 350 355 357 354 351 350 345 338 331 321 316 320 319 314 313 318 320 317 314 312 310 308 305 299 297 296 295 296 295 290 284 281 285 290 288 282 285 288 287 287 290 290 289 286 282 277 271 265 260 253 246 237 230 226 220 213 208 205 203 204
148 329 337 344 348 347 343 342 343 342 344 349 352 353 354 355 357 357 354 351 346 341 336 329 323 323 322 318 317 320 321 318 314 312 310 307 304 300 297 298 297 296 293 287 279 274 283 288 284 280 284 287 286 287 288 287 286 284 281 277 270 262 256 251 247 240 232 228 223 217 211 206 202 203
60 347 335 339 342 341 341 344 348 349 349 354 356 353 353 353 354 355 354 349 344 340 337 335 331 328 326 324 321 322 323 321 318 316 312 308 306 301 297 299 299 298 295 289 277 272 281 285 281 280 284 285 285 286 286 285 284 282 279 275 267 259 252 246 244 239 234 230 224 219 214 209 204 203
52 11 347 345 343 345 348 351 354 353 352 355 355 352 351 351 350 352 352 347 342 341 340 338 336 333 331 328 325 326 327 326 324 319 313 310 309 303 297 300 301 300 300 294 281 270 274 279 279 280 283 284 283 285 287 288 288 283 279 275 267 257 248 241 238 236 233 231 226 220 216 211 207 204
40 7 356 355 351 352 356 358 360 0 357 355 354 351 349 348 347 349 349 345 342 343 342 340 338 336 334 332 329 329 330 329 328 322 314 312 311 305 300 303 304 303 301 295 283 268 268 276 279 280 285 287 284 283 286 289 289 285 284 286 276 257 244 238 234 232 231 229 227 222 216 212 209 204
28 10 3 2 358 358 3 5 6 7 3 358 357 354 350 347 346 348 348 344 342 341 340 340 338 337 337 335 333 333 332 332 331 325 319 316 312 305 303 304 305 304 301 301 297 281 276 280 280 278 284 293 290 286 284 284 284 282 285 293 287 258 239 235 231 230 231 229 227 223 217 212 209 203
16 10 6 5 3 3 6 7 7 9 7 3 2 360 355 350 348 349 347 345 344 342 340 340 339 338 338 337 335 335 335 333 332 330 327 323 316 309 306 305 304 297 294 298 296 282 278 280 279 277 274 269 283 290 288 284 285 287 290 294 289 263 238 232 229 229 232 232 229 224 218 212 206 200
9 5 4 5 5 4 4 4 6 8 8 6 5 3 360 356 353 351 348 347 348 345 342 341 340 339 339 338 337 337 336 334 334 334 333 331 325 319 313 309 305 297 296 301 298 283 278 278 277 278 272 258 263 278 286 288 289 292 298 300 289 268 242 232 229 229 230 231 229 225 219 212 205 200
7 3 1 1 1 1 1 3 5 7 8 8 7 4 2 360 357 356 353 351 350 347 344 343 341 340 340 338 337 337 337 337 338 338 337 335 334 332 328 322 313 302 302 308 306 293 283 277 272 269 265 259 260 267 276 286 290 293 308 316 299 268 242 233 228 227 227 226 225 223 219 213 206 201
6 1 358 357 358 359 1 3 7 9 8 7 7 5 4 3 1 360 358 355 351 348 347 345 341 340 341 339 337 339 339 339 340 340 340 339 339 340 340 337 331 321 316 317 317 310 295 282 273 264 257 256 257 258 261 272 284 293 311 325 305 255 238 234 225 223 225 222 221 219 214 211 206 201
3 360 356 356 357 357 0 5 8 10 9 7 6 6 6 5 4 3 0 356 352 350 348 345 342 341 341 340 339 340 341 340 341 342 343 344 345 346 345 345 346 342 337 336 339 337 318 294 282 268 257 252 250 251 255 262 278 293 310 322 293 237 229 229 220 218 219 215 213 209 205 205 203 199
0 360 356 355 356 355 360 7 8 8 7 6 5 7 8 7 7 5 1 357 354 351 348 345 343 342 342 342 342 343 343 344 345 347 348 348 351 353 353 354 356 358 360 2 3 0 349 326 303 275 254 246 244 249 262 270 276 286 296 298 270 222 218 219 214 213 210 204 202 200 199 199 198 195
359 0 358 356 357 358 4 9 8 6 4 2 4 7 8 8 8 7 3 358 355 352 349 346 345 344 345 346 347 348 348 348 349 351 350 350 352 355 355 356 360 5 10 15 15 10 3 0 352 286 237 233 240 252 267 278 284 293 291 270 243 201 196 208 208 206 203 199 197 198 198 198 195 193
353 355 357 357 358 360 4 8 7 5 2 1 4 7 8 8 8 8 6 3 359 355 351 350 349 349 350 350 350 351 351 351 352 354 354 353 354 355 356 357 0 5 10 16 19 18 15 23 37 54 85 96 66 29 16 8 350 347 347 248 209 152 147 196 203 204 202 198 195 194 194 194 193 193
346 350 355 359 2 5 6 6 7 6 3 1 4 6 7 7 7 8 8 7 4 1 357 355 354 354 353 352 352 352 352 353 354 356 357 357 357 357 359 2 2 3 6 11 15 18 22 31 44 53 59 60 53 46 46 42 29 20 30 60 80 66 76 188 198 200 199 192 187 189 192 192 194 194
342 348 355 359 4 9 9 7 8 7 4 2 3 5 6 6 5 6 7 6 4 3 1 358 356 355 354 353 354 354 353 354 356 358 359 360 360 1 3 4 3 3 5 7 9 13 20 28 40 51 55 56 52 47 41 35 28 27 33 46 56 63 83 194 201 195 190 184 179 182 189 193 195 196
337 338 346 354 2 9 10 9 9 7 4 3 3 3 4 5 5 5 6 6 4 4 4 2 359 358 356 354 355 354 354 354 356 359 1 1 2 4 4 3 3 4 7 10 10 9 13 20 28 41 50 53 52 48 42 33 25 27 35 41 44 49 63 125 191 190 190 188 180 175 180 189 195 197
336 329 333 343 358 9 10 9 9 6 3 3 3 2 2 5 6 5 4 5 6 6 6 5 3 1 359 357 356 356 356 355 357 359 2 4 5 7 7 5 5 6 9 11 10 10 12 16 21 28 34 40 45 44 39 35 30 28 31 35 37 41 53 74 115 152 172 183 179 168 162 171 184 191
335 327 326 330 344 4 8 8 7 4 1 1 2 1 1 3 6 6 4 3 6 8 8 6 5 4 2 360 359 359 359 358 359 0 3 5 6 7 8 9 9 11 13 13 11 12 15 18 21 25 29 33 39 35 29 32 35 34 30 30 35 41 53 73 92 102 110 134 155 155 145 141 156 176
333 328 324 323 328 352 2 3 4 2 0 359 358 358 360 2 5 6 4 2 4 8 9 9 8 7 5 3 2 2 2 1 2 3 4 5 7 8 9 10 11 12 14 15 15 15 17 20 24 28 30 35 44 38 19 28 35 38 38 37 38 42 56 75 81 79 84 97 111 123 125 121 126 151
325 326 325 321 316 336 352 357 359 359 359 357 354 353 355 359 2 5 5 4 4 6 9 10 11 11 9 7 4 3 4 4 4 5 6 6 7 9 9 10 11 12 14 17 17 18 20 22 24 27 29 33 39 36 22 27 31 35 40 45 45 47 58 70 73 74 80 89 94 100 108 112 116 134
316 318 321 318 307 320 341 349 353 355 356 356 351 347 348 354 359 3 6 6 4 5 8 10 12 13 12 11 9 7 6 6 4 3 5 6 7 9 10 11 12 13 15 18 18 19 22 24 24 25 28 29 31 35 39 40 37 38 43 47 49 52 58 64 70 75 81 89 95 96 98 102 109 124
309 311 315 310 297 307 329 340 347 350 351 351 349 344 342 347 355 2 6 7 4 4 6 9 11 14 14 14 13 10 9 9 7 5 5 8 9 10 11 13 15 17 17 19 19 19 20 21 24 29 34 39 48 54 54 52 46 42 44 47 49 53 59 64 71 74 75 89 98 98 97 98 100 109
301 304 307 298 280 294 320 332 340 345 346 345 345 343 338 340 348 357 4 7 5 3 5 8 10 13 14 15 16 13 10 9 9 9 8 9 10 13 15 16 17 19 20 21 20 20 21 25 31 39 45 49 54 55 52 48 40 36 40 45 49 54 58 62 69 73 74 88 98 97 96 99 99 99
294 297 299 284 267 285 313 324 331 340 343 340 340 340 338 336 340 347 358 5 6 4 4 7 9 12 13 15 17 17 14 11 11 11 12 11 11 13 16 17 17 18 21 25 25 25 28 33 38 42 44 46 50 51 48 42 39 37 40 44 49 54 58 60 63 67 67 76 89 93 96 102 100 94
289 292 288 271 261 279 304 317 324 332 338 339 336 334 333 334 335 339 350 1 6 4 3 5 7 10 12 14 17 19 18 16 14 14 15 16 15 14 16 18 20 21 24 29 31 33 36 38 40 42 42 41 45 49 49 45 44 44 44 45 48 53 58 61 64 65 64 66 73 82 95 106 107 104
289 286 275 261 262 280 297 310 319 325 331 335 333 328 327 329 331 333 342 355 3 4 3 2 5 9 12 14 17 20 20 20 19 19 19 20 21 21 22 23 25 26 28 30 32 36 40 41 41 43 43 41 42 46 48 47 46 47 49 51 51 51 54 60 64 66 66 68 74 83 90 95 100 105
288 277 265 259 268 282 292 302 313 318 322 327 328 326 324 325 326 327 332 344 356 3 3 1 2 7 11 14 16 18 19 21 23 24 24 24 25 26 28 29 30 30 31 32 32 34 39 44 45 46 46 44 44 47 49 50 50 50 50 51 52 53 55 60 64 65 64 66 75 85 90 93 98 103